Location: Newark
(31.8769°N, 91.1411°W)
Time: 06:42:28
(UTC+00:00)

N. Korean satellite - Pass Details

Date: 29 January 2020
Orbit: 456 x 505 km, 97.2° (Epoch: 27 February)

Event Time Altitude Azimuth Distance (km) Brightness Sun altitude
Rises 11:54:36 0° 7° (N) 2,559 10.2 -14.1°
Reaches altitude 10° 11:56:40 10° 5° (N) 1,682 9.2 -13.7°
Maximum altitude 12:00:15 67° 283° (WNW) 541 6.5 -13.0°
Drops below altitude 10° 12:03:53 10° 200° (SSW) 1,695 9.2 -12.2°
Sets 12:05:58 0° 198° (SSW) 2,579 10.2 -11.8°
